Погода в Огневском

Россия / Челябинская область     56°06′32″N   61°31′09″E
темп.,
°C
ветер,
м/с
пор.,
м/с
влажн.,
%
обл.,
%
осадки,
мм/ч
давл.,
гПа
погр.,
м
7 мая, пт
пт723:00+6з37635 0.0 1017128
02:00+5з36740 0.0 101895
05:00+5з34840 0.0 102062
08:00+10з346398 0.0 1020297
11:00+16юз45455 0.0 10201265
14:00+19юз45335 0.0 10191807
17:00+20ююз34295 0.0 10191936
20:00+16ю35465 0.0 101872
8 мая, сб
сб823:00+12ююз33505 0.0 101927
02:00+10ююз3352100 0.0 101949
05:00+10ююз225262 0.0 101926
08:00+13ююз224499 0.0 1019179
11:00+18ю2231100 0.0 10181009
14:00+20ююз2225100 0.0 10172464
17:00+20ю222446 0.0 10172707
20:00+16ююв223999 0.0 101611
9 мая, вс
вс923:00+13сз1142100 0.0 101710
02:00+12с224599 0.0 101629
05:00+11с2248100 0.0 101734
08:00+15св2344100 0.0 1017223
11:00+20всв463299 0.0 10171986
14:00+21в5726100 0.0 10163203
17:00+19в2536100 0.0 10171438
20:00+16всв2242100 0.0 101832
10 мая, пн
пн1023:00+14с374382 0.0 1019142
02:00+11ссв335875 0.0 102040
05:00+10св347299 0.0 102163
08:00+15всв245999 0.0 1023266
11:00+20в34409 0.0 10231503
14:00+21всв343530 0.0 10232148
17:00+22в22296 0.0 10222581
20:00+19з224397 0.0 102220
11 мая, вт
вт1123:00+15сз22535 0.0 102328
02:00+13зсз3464100 0.0 102352
05:00+12зсз2262100 0.0 102337
08:00+17зсз3450100 0.0 1023237
11:00+18сз5648100 0.0 1023836
14:00+15зсз4769100 0.3 1024421
17:00+20зсз354679 0.5 10231767
20:00+17с476072 0.1 1023402